Location: Asheville, NC
(35.6000°N, 82.5500°W)
Time: 18:44:58
(UTC-04:00)

ITAMSAT 1 - Pass Details

Date: 16 March 2018
Orbit: 784 x 796 km, 98.9° (Epoch: 19 June)

Event Time Altitude Azimuth Distance (km) Brightness Sun altitude
Rises 06:24:19 0° 0° (N) 3,301 11.0 -16.1°
Reaches altitude 10° 06:26:55 10° 349° (N) 2,366 10.1 -15.5°
Maximum altitude 06:31:18 28° 292° (WNW) 1,441 8.5 -14.7°
Enters shadow 06:33:36 20° 253° (WSW) 1,736 8.8 -14.2°
